Time,TemperatureF,DewpointF,PressureIn,WindDirection,WindDirectionDegrees,WindSpeedMPH,WindSpeedGustMPH,Humidity,HourlyPrecipIn,Conditions,Clouds,dailyrainin,SolarRadiationWatts/m^2,SoftwareType,DateUTC
2013-02-11 00:02:00,29.0,29.0,-100.00,North,9,6.0,10.0,98,0.00,,,0.34,0.000000,,2013-02-11 06:02:00,
2013-02-11 00:32:00,30.0,29.0,-100.00,North,350,6.0,10.0,98,0.00,,,0.34,0.000000,,2013-02-11 06:32:00,
2013-02-11 00:42:00,30.0,29.0,-100.00,North,350,6.0,10.0,98,0.00,,,0.34,0.000000,,2013-02-11 06:42:00,
2013-02-11 00:52:00,30.0,29.0,-100.00,North,350,6.0,10.0,98,0.00,,,0.34,0.000000,,2013-02-11 06:52:00,
2013-02-11 01:01:00,30.0,29.0,-100.00,North,350,6.0,10.0,98,0.00,,,0.34,0.000000,,2013-02-11 07:01:00,
2013-02-11 01:32:00,31.0,31.0,-100.00,NNW,336,7.0,11.0,98,0.00,,,0.34,0.000000,,2013-02-11 07:32:00,
2013-02-11 01:42:00,31.0,31.0,-100.00,NNW,336,7.0,11.0,98,0.00,,,0.34,0.000000,,2013-02-11 07:42:00,
2013-02-11 01:52:00,31.0,31.0,-100.00,NNW,336,7.0,11.0,98,0.00,,,0.34,0.000000,,2013-02-11 07:52:00,
2013-02-11 02:01:00,31.0,31.0,-100.00,NNW,336,7.0,11.0,98,0.00,,,0.34,0.000000,,2013-02-11 08:01:00,
2013-02-11 02:32:00,30.0,29.0,-100.00,NNW,332,7.0,12.0,98,0.00,,,0.34,0.000000,,2013-02-11 08:32:00,
2013-02-11 02:42:00,30.0,29.0,-100.00,NNW,332,7.0,12.0,98,0.00,,,0.34,0.000000,,2013-02-11 08:42:00,
2013-02-11 02:52:00,30.0,29.0,-100.00,NNW,332,7.0,12.0,98,0.00,,,0.34,0.000000,,2013-02-11 08:52:00,
2013-02-11 03:01:00,30.0,29.0,-100.00,NNW,332,7.0,12.0,98,0.00,,,0.34,0.000000,,2013-02-11 09:01:00,
2013-02-11 03:32:00,28.0,27.0,-100.00,NW,319,8.0,14.0,96,0.01,,,0.35,0.000000,,2013-02-11 09:32:00,
2013-02-11 03:42:00,28.0,27.0,-100.00,NW,319,8.0,14.0,96,0.01,,,0.35,0.000000,,2013-02-11 09:42:00,
2013-02-11 03:52:00,28.0,27.0,-100.00,NW,319,8.0,14.0,96,0.01,,,0.35,0.000000,,2013-02-11 09:52:00,
2013-02-11 04:01:00,28.0,27.0,-100.00,NW,319,8.0,14.0,96,0.01,,,0.35,0.000000,,2013-02-11 10:01:00,
2013-02-11 04:32:00,28.0,26.0,-100.00,NW,321,7.0,15.0,93,0.00,,,0.35,0.000000,,2013-02-11 10:32:00,
2013-02-11 04:42:00,28.0,26.0,-100.00,NW,321,7.0,15.0,93,0.00,,,0.35,0.000000,,2013-02-11 10:42:00,
2013-02-11 04:52:00,28.0,26.0,-100.00,NW,321,7.0,15.0,93,0.00,,,0.35,0.000000,,2013-02-11 10:52:00,
2013-02-11 05:01:00,28.0,26.0,-100.00,NW,321,7.0,15.0,93,0.00,,,0.35,0.000000,,2013-02-11 11:01:00,
2013-02-11 05:32:00,28.0,26.0,-100.00,NW,310,7.0,16.0,92,0.00,,,0.35,0.000000,,2013-02-11 11:32:00,
2013-02-11 05:42:00,28.0,26.0,-100.00,NW,310,7.0,16.0,92,0.00,,,0.35,0.000000,,2013-02-11 11:42:00,
2013-02-11 05:52:00,28.0,26.0,-100.00,NW,310,7.0,16.0,92,0.00,,,0.35,0.000000,,2013-02-11 11:52:00,
2013-02-11 06:03:00,28.0,26.0,-100.00,NW,310,7.0,16.0,92,0.00,,,0.35,0.000000,,2013-02-11 12:03:00,
2013-02-11 06:32:00,27.0,25.0,-100.00,NW,317,8.0,16.0,91,0.00,,,-99.99,0.000000,,2013-02-11 12:32:00,
2013-02-11 06:42:00,27.0,25.0,-100.00,NW,317,8.0,16.0,91,0.00,,,-99.99,0.000000,,2013-02-11 12:42:00,
2013-02-11 06:52:00,27.0,25.0,-100.00,NW,317,8.0,16.0,91,0.00,,,-99.99,0.000000,,2013-02-11 12:52:00,
2013-02-11 07:02:00,27.0,25.0,-100.00,NW,317,8.0,16.0,91,0.00,,,-99.99,0.000000,,2013-02-11 13:02:00,
2013-02-11 07:33:00,26.0,24.0,-100.00,NW,314,7.0,18.0,91,0.00,,,-99.99,0.000000,,2013-02-11 13:33:00,
2013-02-11 07:42:00,26.0,24.0,-100.00,NW,314,7.0,18.0,91,0.00,,,-99.99,0.000000,,2013-02-11 13:42:00,
2013-02-11 07:52:00,26.0,24.0,-100.00,NW,314,7.0,18.0,91,0.00,,,-99.99,0.000000,,2013-02-11 13:52:00,
2013-02-11 08:02:00,26.0,24.0,-100.00,NW,314,7.0,18.0,91,0.00,,,-99.99,0.000000,,2013-02-11 14:02:00,
2013-02-11 08:33:00,25.0,22.0,-100.00,NW,310,9.0,16.0,87,0.00,,,-99.99,8.000000,,2013-02-11 14:33:00,
2013-02-11 08:42:00,25.0,22.0,-100.00,NW,310,9.0,16.0,87,0.00,,,-99.99,8.000000,,2013-02-11 14:42:00,
2013-02-11 08:53:00,25.0,22.0,-100.00,NW,310,9.0,16.0,87,0.00,,,-99.99,8.000000,,2013-02-11 14:53:00,
2013-02-11 09:02:00,25.0,22.0,-100.00,NW,310,9.0,16.0,87,0.00,,,-99.99,8.000000,,2013-02-11 15:02:00,
2013-02-11 09:32:00,25.0,20.0,-100.00,NW,326,9.0,20.0,81,0.00,,,0.34,42.000000,,2013-02-11 15:32:00,
2013-02-11 09:42:00,25.0,20.0,-100.00,NW,326,9.0,20.0,81,0.00,,,0.34,42.000000,,2013-02-11 15:42:00,
2013-02-11 09:52:00,25.0,20.0,-100.00,NW,326,9.0,20.0,81,0.00,,,0.34,42.000000,,2013-02-11 15:52:00,
2013-02-11 10:02:00,25.0,20.0,-100.00,NW,326,9.0,20.0,81,0.00,,,0.34,42.000000,,2013-02-11 16:02:00,
2013-02-11 10:32:00,26.0,20.0,-100.00,NW,319,8.0,17.0,78,0.00,,,0.34,114.000000,,2013-02-11 16:32:00,
2013-02-11 10:42:00,26.0,20.0,-100.00,NW,319,8.0,17.0,78,0.00,,,0.34,114.000000,,2013-02-11 16:42:00,
2013-02-11 10:52:00,26.0,20.0,-100.00,NW,319,8.0,17.0,78,0.00,,,0.34,114.000000,,2013-02-11 16:52:00,
2013-02-11 11:02:00,26.0,20.0,-100.00,NW,319,8.0,17.0,78,0.00,,,0.34,114.000000,,2013-02-11 17:02:00,
2013-02-11 11:32:00,26.0,19.0,-100.00,WNW,296,7.0,15.0,73,0.00,,,0.32,178.000000,,2013-02-11 17:32:00,
2013-02-11 11:42:00,26.0,19.0,-100.00,WNW,296,7.0,15.0,73,0.00,,,0.32,178.000000,,2013-02-11 17:42:00,
2013-02-11 11:53:00,26.0,19.0,-100.00,WNW,296,7.0,15.0,73,0.00,,,0.32,178.000000,,2013-02-11 17:53:00,
2013-02-11 12:02:00,26.0,19.0,-100.00,WNW,296,7.0,15.0,73,0.00,,,0.32,178.000000,,2013-02-11 18:02:00,
2013-02-11 12:32:00,26.0,18.0,-100.00,WNW,295,10.0,21.0,71,0.00,,,0.26,203.000000,,2013-02-11 18:32:00,
2013-02-11 12:42:00,26.0,18.0,-100.00,WNW,295,10.0,21.0,71,0.00,,,0.26,203.000000,,2013-02-11 18:42:00,
2013-02-11 12:53:00,26.0,18.0,-100.00,WNW,295,10.0,21.0,71,0.00,,,0.26,203.000000,,2013-02-11 18:53:00,
2013-02-11 13:02:00,26.0,18.0,-100.00,WNW,295,10.0,21.0,71,0.00,,,0.26,203.000000,,2013-02-11 19:02:00,
2013-02-11 14:32:00,26.0,17.0,-100.00,WNW,285,8.0,19.0,67,-99.99,,,0.14,172.000000,,2013-02-11 20:32:00,
2013-02-11 14:42:00,26.0,17.0,-100.00,WNW,285,8.0,19.0,67,-99.99,,,0.14,172.000000,,2013-02-11 20:42:00,
2013-02-11 14:52:00,26.0,17.0,-100.00,WNW,285,8.0,19.0,67,-99.99,,,0.14,172.000000,,2013-02-11 20:52:00,
2013-02-11 15:02:00,26.0,17.0,-100.00,WNW,285,8.0,19.0,67,-99.99,,,0.14,172.000000,,2013-02-11 21:02:00,
2013-02-11 15:32:00,27.0,17.0,-100.00,WNW,298,8.0,17.0,66,0.00,,,0.10,134.000000,,2013-02-11 21:32:00,
2013-02-11 15:42:00,27.0,17.0,-100.00,WNW,298,8.0,17.0,66,0.00,,,0.10,134.000000,,2013-02-11 21:42:00,
2013-02-11 15:52:00,27.0,17.0,-100.00,WNW,298,8.0,17.0,66,0.00,,,0.10,134.000000,,2013-02-11 21:52:00,
2013-02-11 16:02:00,27.0,17.0,-100.00,WNW,298,8.0,17.0,66,0.00,,,0.10,134.000000,,2013-02-11 22:02:00,
2013-02-11 16:32:00,27.0,17.0,-100.00,WNW,296,8.0,16.0,66,0.00,,,0.03,89.000000,,2013-02-11 22:32:00,
2013-02-11 16:42:00,27.0,17.0,-100.00,WNW,296,8.0,16.0,66,0.00,,,0.03,89.000000,,2013-02-11 22:42:00,
2013-02-11 16:52:00,27.0,17.0,-100.00,WNW,296,8.0,16.0,66,0.00,,,0.03,89.000000,,2013-02-11 22:52:00,
2013-02-11 17:02:00,27.0,17.0,-100.00,WNW,296,8.0,16.0,66,0.00,,,0.03,89.000000,,2013-02-11 23:02:00,
2013-02-11 17:32:00,26.0,18.0,-100.00,WNW,295,9.0,15.0,70,0.00,,,0.02,35.000000,,2013-02-11 23:32:00,
2013-02-11 17:42:00,26.0,18.0,-100.00,WNW,295,9.0,15.0,70,0.00,,,0.02,35.000000,,2013-02-11 23:42:00,
2013-02-11 17:52:00,26.0,18.0,-100.00,WNW,295,9.0,15.0,70,0.00,,,0.02,35.000000,,2013-02-11 23:52:00,
2013-02-11 18:02:00,26.0,18.0,-100.00,WNW,295,9.0,15.0,70,0.00,,,0.02,35.000000,,2013-02-12 00:02:00,
2013-02-11 18:32:00,24.0,16.0,-100.00,West,275,6.0,16.0,70,0.00,,,0.01,4.000000,,2013-02-12 00:32:00,
2013-02-11 18:42:00,24.0,16.0,-100.00,West,275,6.0,16.0,70,0.00,,,0.01,4.000000,,2013-02-12 00:42:00,
2013-02-11 18:52:00,24.0,16.0,-100.00,West,275,6.0,16.0,70,0.00,,,0.01,4.000000,,2013-02-12 00:52:00,
2013-02-11 19:02:00,24.0,16.0,-100.00,West,275,6.0,16.0,70,0.00,,,0.01,4.000000,,2013-02-12 01:02:00,
2013-02-11 19:32:00,24.0,16.0,-100.00,West,269,6.0,12.0,72,0.00,,,-99.99,0.000000,,2013-02-12 01:32:00,
2013-02-11 19:42:00,24.0,16.0,-100.00,West,269,6.0,12.0,72,0.00,,,-99.99,0.000000,,2013-02-12 01:42:00,
2013-02-11 19:52:00,24.0,16.0,-100.00,West,269,6.0,12.0,72,0.00,,,-99.99,0.000000,,2013-02-12 01:52:00,
2013-02-11 20:01:00,24.0,16.0,-100.00,West,269,6.0,12.0,72,0.00,,,-99.99,0.000000,,2013-02-12 02:01:00,
2013-02-11 20:32:00,23.0,14.0,-100.00,WNW,297,6.0,12.0,69,0.00,,,0.01,0.000000,,2013-02-12 02:32:00,
2013-02-11 20:42:00,23.0,14.0,-100.00,WNW,297,6.0,12.0,69,0.00,,,0.01,0.000000,,2013-02-12 02:42:00,
2013-02-11 20:53:00,23.0,14.0,-100.00,WNW,297,6.0,12.0,69,0.00,,,0.01,0.000000,,2013-02-12 02:53:00,
2013-02-11 21:02:00,23.0,14.0,-100.00,WNW,297,6.0,12.0,69,0.00,,,0.01,0.000000,,2013-02-12 03:02:00,
2013-02-11 21:32:00,22.0,14.0,-100.00,NW,314,6.0,15.0,70,0.00,,,0.01,0.000000,,2013-02-12 03:32:00,
2013-02-11 21:42:00,22.0,14.0,-100.00,NW,314,6.0,15.0,70,0.00,,,0.01,0.000000,,2013-02-12 03:42:00,
2013-02-11 21:52:00,22.0,14.0,-100.00,NW,314,6.0,15.0,70,0.00,,,0.01,0.000000,,2013-02-12 03:52:00,
2013-02-11 22:01:00,22.0,14.0,-100.00,NW,314,6.0,15.0,70,0.00,,,0.01,0.000000,,2013-02-12 04:01:00,
2013-02-11 22:32:00,21.0,13.0,-100.00,West,277,5.0,14.0,72,0.00,,,0.01,0.000000,,2013-02-12 04:32:00,
2013-02-11 22:42:00,21.0,13.0,-100.00,West,277,5.0,14.0,72,0.00,,,0.01,0.000000,,2013-02-12 04:42:00,
2013-02-11 22:52:00,21.0,13.0,-100.00,West,277,5.0,14.0,72,0.00,,,0.01,0.000000,,2013-02-12 04:52:00,
2013-02-11 23:01:00,21.0,13.0,-100.00,West,277,5.0,14.0,72,0.00,,,0.01,0.000000,,2013-02-12 05:01:00,
2013-02-11 23:32:00,20.0,12.0,-100.00,West,266,6.0,10.0,72,0.00,,,0.01,0.000000,,2013-02-12 05:32:00,
2013-02-11 23:42:00,20.0,12.0,-100.00,West,266,6.0,10.0,72,0.00,,,0.01,0.000000,,2013-02-12 05:42:00,
2013-02-11 23:52:00,20.0,12.0,-100.00,West,266,6.0,10.0,72,0.00,,,0.01,0.000000,,2013-02-12 05:52:00,